Location: Firdgum
(53.2488°N, 5.5615°E)
Time: 20:01:10
(UTC+00:00)

Helios 1A Rocket - Pass Details

Date: 08 December 2019
Orbit: 564 x 587 km, 98.3° (Epoch: 25 January)

Event Time Altitude Azimuth Distance (km) Brightness Sun altitude
Rises 05:01:00 0° 20° (NNE) 2,786 6.6 -22.2°
Reaches altitude 10° 05:03:15 10° 27° (NNE) 1,880 5.7 -21.8°
Maximum altitude 05:07:08 43° 99° (E) 810 4.1 -21.3°
Drops below altitude 10° 05:10:58 10° 172° (S) 1,858 5.7 -20.7°
Sets 05:13:10 0° 179° (S) 2,749 6.5 -20.4°
